Weather History for KTZR - September, 2014

Change the Weather History Date:

Wednesday, September 3, 2014

  Actual Average Record
Temperature  
Mean Temperature 74 °F -  
Max Temperature 87 °F 79 °F 93 °F (2002)
Min Temperature 60 °F 58 °F 51 °F (1998)
Cooling Degree Days 8    
Growing Degree Days 24 (Base 50)    
Moisture  
Dew Point 64 °F    
Average Humidity 94    
Maximum Humidity 100    
Minimum Humidity 58    
Precipitation  
Precipitation 0.00 in - - ()
Sea Level Pressure  
Sea Level Pressure 30.05 in    
Wind  
Wind Speed 1 mph (SW)    
Max Wind Speed 5 mph    
Max Gust Speed -    
Visibility 6 miles    
Events Fog    
Averages and records for this station are not official NWS values.
T = Trace of Precipitation, MM = Missing Value Source: NWS Daily Summary

Daily Weather History Graph

Daily Weather History Graph

Search for Another Location

Airport or City:

Trip Planner

Search our weather history database for the weather conditions in past years. The results will help you decide how hot, cold, wet, or windy it might be!

Date:

Astronomy

Sep. 03, 2014 Rise Set
Actual Time 7:02 AM EDT 8:00 PM EDT
Civil Twilight 6:34 AM EDT 8:28 PM EDT
Nautical Twilight 6:01 AM EDT 9:01 PM EDT
Astronomical Twilight 5:27 AM EDT 9:35 PM EDT
Moon 3:41 PM EDT (9/3) 12:55 AM EDT (9/3)
Length of Visible Light 13h 53m
Length of Day
12h 58m
Waxing Gibbous, 63% of the Moon is Illuminated
Sep 3
Waxing Gibbous
Sep 8
Full
Sep 15
Last Quarter
Sep 24
New
Oct 1
First Quarter

Hourly Weather History & Observations

Time (EDT) Temp. Heat Index Dew Point Humidity Pressure Visibility Wind Dir Wind Speed Gust Speed Precip Events Conditions
12:15 AM 64.4 °F - 64.4 °F 100% 30.01 in 7.0 mi SW 4.6 mph - N/A   Scattered Clouds
12:35 AM 65.1 °F - 65.1 °F 100% 30.01 in 10.0 mi West 3.5 mph - N/A   Clear
12:55 AM 65.1 °F - 65.1 °F 100% 30.01 in 10.0 mi WSW 3.5 mph - N/A   Clear
1:10 AM 66.6 °F - 66.6 °F 100% 30.01 in 10.0 mi WSW 4.6 mph - N/A   Clear
1:35 AM 65.5 °F - 65.5 °F 100% 30.02 in 10.0 mi Calm Calm - N/A   Clear
1:55 AM 63.7 °F - 63.7 °F 100% 30.02 in 4.0 mi Calm Calm - N/A   Clear
2:15 AM 64.6 °F - 64.6 °F 100% 30.01 in 10.0 mi Calm Calm - N/A   Clear
2:35 AM 63.9 °F - 63.9 °F 100% 30.01 in 2.0 mi Calm Calm - N/A   Clear
2:55 AM 64.4 °F - 64.4 °F 100% 30.01 in 3.0 mi Calm Calm - N/A   Clear
3:15 AM 65.5 °F - 65.5 °F 100% 30.01 in 10.0 mi Calm Calm - N/A   Clear
3:35 AM 65.5 °F - 65.5 °F 100% 30.01 in 7.0 mi WNW 3.5 mph - N/A   Clear
3:55 AM 61.9 °F - 61.9 °F 100% 30.02 in 0.5 mi Calm Calm - N/A Fog Fog
4:15 AM 61.9 °F - 61.9 °F 100% 30.02 in 0.2 mi Calm Calm - N/A Fog Fog
4:35 AM 61.5 °F - 61.5 °F 100% 30.03 in 0.2 mi Calm Calm - N/A Fog Fog
4:55 AM 61.7 °F - 61.7 °F 100% 30.03 in 0.2 mi Calm Calm - N/A Fog Fog
5:15 AM 61.5 °F - 61.5 °F 100% 30.03 in 0.5 mi Calm Calm - N/A Fog Fog
5:35 AM 61.0 °F - 61.0 °F 100% 30.03 in 0.2 mi Calm Calm - N/A Fog Fog
5:55 AM 60.3 °F - 60.3 °F 100% 30.04 in 0.5 mi Calm Calm - N/A Fog Fog
6:15 AM 60.1 °F - 60.1 °F 100% 30.04 in 0.5 mi Calm Calm - N/A Fog Fog
6:35 AM 61.0 °F - 61.0 °F 100% 30.05 in 0.2 mi Calm Calm - N/A Fog Fog
6:55 AM 60.6 °F - 60.6 °F 100% 30.05 in 0.2 mi Calm Calm - N/A Fog Fog
7:15 AM 60.1 °F - 60.1 °F 100% 30.06 in 0.2 mi Calm Calm - N/A Fog Fog
7:25 AM 60.8 °F - 60.8 °F 100% 30.06 in 0.2 mi Calm Calm - N/A Fog Fog
7:58 AM 62.6 °F - 62.6 °F 100% 30.08 in 0.2 mi Calm Calm - N/A Fog Fog
8:55 AM 66.2 °F - 66.2 °F 100% 30.09 in 0.2 mi Calm Calm - N/A Fog Fog
9:32 AM 66.2 °F - 66.2 °F 100% 30.09 in 1.2 mi Calm Calm - N/A   Overcast
9:50 AM 69.8 °F - 69.8 °F 100% 30.09 in 3.0 mi Calm Calm - N/A   Overcast
10:15 AM 69.8 °F - 69.8 °F 100% 30.10 in 5.0 mi Calm Calm - N/A   Scattered Clouds
10:50 AM 73.4 °F - 71.6 °F 94% 30.09 in 10.0 mi Calm Calm - N/A   Scattered Clouds
12:50 PM 78.8 °F - 68.0 °F 69% 30.08 in 10.0 mi South 3.5 mph - N/A   Mostly Cloudy
2:47 PM 84.2 °F - - N/A% 30.08 in 10.0 mi South 3.5 mph - N/A   Mostly Cloudy
3:50 PM 86.0 °F - - N/A% 30.06 in 10.0 mi South 3.5 mph - N/A   Mostly Cloudy
4:47 PM 87.8 °F - - N/A% 30.05 in 10.0 mi Calm Calm - N/A   Mostly Cloudy
5:47 PM 78.8 °F - 66.2 °F 65% 30.06 in 10.0 mi WSW 3.5 mph - N/A   Scattered Clouds
6:47 PM 80.6 °F 82.3 °F 64.4 °F 58% 30.06 in 10.0 mi West 3.5 mph - N/A   Partly Cloudy
7:30 PM 77.0 °F - 68.4 °F 75% 30.06 in 10.0 mi Calm Calm - N/A   Scattered Clouds
7:55 PM 72.9 °F - 67.8 °F 84% 30.06 in 10.0 mi Calm Calm - N/A   Clear
8:15 PM 71.2 °F - 66.9 °F 86% 30.06 in 10.0 mi Calm Calm - N/A   Clear
8:35 PM 70.7 °F - 66.2 °F 86% 30.06 in 10.0 mi Calm Calm - N/A   Clear
8:55 PM 69.8 °F - 64.6 °F 83% 30.07 in 10.0 mi Calm Calm - N/A   Clear
9:15 PM 67.1 °F - 65.1 °F 93% 30.07 in 10.0 mi Calm Calm - N/A   Clear
9:35 PM 67.3 °F - 64.6 °F 91% 30.08 in 10.0 mi Calm Calm - N/A   Clear
9:55 PM 67.5 °F - 64.4 °F 90% 30.09 in 10.0 mi Calm Calm - N/A   Clear
10:15 PM 65.3 °F - 64.0 °F 96% 30.09 in 10.0 mi Calm Calm - N/A   Clear
10:35 PM 68.4 °F - 63.9 °F 85% 30.09 in 10.0 mi Calm Calm - N/A   Clear
10:55 PM 64.9 °F - 63.3 °F 94% 30.10 in 10.0 mi Calm Calm - N/A   Clear
11:15 PM 62.6 °F - 62.2 °F 99% 30.10 in 10.0 mi Calm Calm - N/A   Scattered Clouds
11:55 PM 63.3 °F - 63.3 °F 100% 30.10 in 10.0 mi Calm Calm - N/A   Clear